Kuchera_Ratio
0.0 0.0 0.0 0.0 0.0 0.0 0.0 0.0 0.0 0.0 0.0 0.0 0.0 0.0 0.0 0.0 0.0 0.0 0.0 0.0 0.0 0.0 0.0 0.0 0.0 0.0 0.0 0.0 0.0 0.0 0.0 0.0 0.0 0.0 0.0 0.0 0.0 0.0 0.0 0.0 0.0 0.0 0.0
0.0 0.0 0.0 0.0 0.0 0.0 0.0 0.0 0.0 0.0 0.0 0.0 0.0 0.0 0.0 0.0 0.0 0.0 0.0 0.0 0.0 0.0 0.0 0.0 0.0 0.0 0.0 0.0 0.0 0.0 0.0 0.0 0.0 0.0 0.0 0.0 0.0 0.0 0.0 0.0 0.0 0.0 0.0
0.0 0.0 0.0 0.0 0.0 0.0 0.0 0.0 0.0 0.0 0.0 0.0 0.0 0.0 0.0 0.0 0.0 0.0 0.0 0.0 0.0 0.0 0.0 0.0 0.0 0.0 0.0 0.0 0.0 0.0 0.0 0.0 0.0 0.0 0.0 0.0 0.0 0.0 0.0 0.0 0.0 0.0 0.0
0.0 0.0 0.0 0.0 0.0 0.0 0.0 0.0 0.0 0.0 0.0 0.0 0.0 0.0 0.0 0.0 0.0 0.0 0.0 0.0 0.0 0.0 0.0 0.0 0.0 0.0 0.0 0.0 0.0 0.0 0.0 0.0 0.0 0.0 0.0 0.0 0.0 0.0 0.0 0.0 0.0 0.0 0.0
0.0 0.0 0.0 0.0 0.0 0.0 0.0 0.0 0.0 0.0 0.0 0.0 0.0 0.0 0.0 0.0 0.0 0.0 0.0 0.0 0.0 0.0 0.0 0.0 0.0 0.0 0.0 0.0 0.0 0.0 0.0 0.0 0.0 0.0 0.0 0.0 0.0 0.0 0.0 0.0 0.0 0.0 0.0
0.0 0.0 0.0 0.0 0.0 0.0 0.0 0.0 0.0 0.0 0.0 0.0 0.0 0.0 0.0 0.0 0.0 0.0 0.0 0.0 0.0 0.0 0.0 0.0 0.0 0.0 0.0 0.0 0.0 0.0 0.0 0.0 0.0 0.0 0.0 0.0 0.0 0.0 0.0 0.0 0.0 0.0 0.0
0.0 0.0 0.0 0.0 0.0 0.0 0.0 0.0 0.0 0.0 0.0 0.0 0.0 0.0 0.0 0.0 0.0 0.0 0.0 0.0 0.0 0.0 0.0 0.0 0.0 0.0 0.0 0.0 0.0 0.0 0.0 0.0 0.0 0.0 0.0 0.0 0.0 0.0 0.0 0.0 0.0 0.0 0.0
0.0 0.0 0.0 0.0 0.0 0.0 0.0 0.0 0.0 0.0 0.0 0.0 0.0 0.0 0.0 0.0 0.0 0.0 0.0 0.0 0.0 0.0 0.0 0.0 0.0 0.0 0.0 0.0 0.0 0.0 0.0 0.0 0.0 0.0 0.0 0.0 0.0 0.0 0.0 0.0 0.0 0.0 0.0
0.0 0.0 0.0 0.0 0.0 0.0 0.0 0.0 0.0 0.0 0.0 0.0 0.0 0.0 0.0 0.0 0.0 0.0 0.0 0.0 0.0 0.0 0.0 0.0 0.0 0.0 0.0 0.0 0.0 0.0 0.0 0.0 0.0 0.0 0.0 0.0 0.0 0.0 0.0 0.0 0.0 0.0 0.0
0.0 0.0 0.0 0.0 0.0 0.0 0.0 0.0 0.0 0.0 0.0 0.0 0.0 0.0 0.0 0.0 0.0 0.0 0.0 0.0 0.0 0.0 0.0 0.0 0.0 0.0 0.0 0.0 0.0 0.0 0.0 0.0 0.0 0.0 0.0 0.0 0.0 0.0 0.0 0.0 0.7 1.2 2.1
0.0 0.0 0.0 0.0 0.0 0.0 0.0 0.0 0.0 0.0 0.0 0.0 0.0 0.0 0.0 0.0 0.0 0.0 0.0 0.0 0.0 0.0 0.0 0.0 0.0 0.0 0.0 0.0 0.0 0.0 0.0 0.0 0.0 1.2 1.2 0.7 0.6 0.8 1.4 1.9 3.2 4.3 4.7
0.0 0.0 0.0 0.0 0.0 0.0 0.0 0.0 0.0 0.0 0.0 0.0 0.0 0.4 0.0 0.0 0.0 0.0 0.0 0.0 0.0 0.0 0.0 0.0 0.0 0.0 0.0 0.0 0.0 0.0 0.0 0.0 1.3 3.2 3.1 3.5 4.3 4.8 4.1 4.1 4.3 5.0 4.4
0.0 0.0 0.0 0.0 0.0 0.0 0.0 0.0 0.0 0.0 0.0 0.0 0.2 0.1 0.0 0.0 0.3 0.0 0.0 0.0 0.0 0.0 0.0 0.0 0.0 0.0 0.0 0.0 0.0 0.0 0.0 2.5 4.6 5.8 6.4 6.1 5.6 5.5 6.3 5.9 5.4 5.1 5.9
0.0 0.0 0.0 0.0 0.0 0.3 0.0 0.8 0.1 0.0 0.0 0.0 0.0 0.0 0.0 0.0 0.0 0.2 0.6 0.8 0.0 0.0 0.0 0.3 0.0 0.0 0.0 1.1 2.2 2.5 3.7 4.6 6.4 7.7 7.4 6.4 5.7 5.5 5.7 5.5 6.7 6.0 7.2
0.0 0.0 0.0 0.4 0.7 1.0 0.5 0.0 0.0 0.0 0.2 0.3 0.0 0.0 0.3 0.4 0.3 0.8 2.0 2.2 3.2 0.3 3.7 6.2 7.8 8.0 8.1 8.5 8.7 10.1 8.3 6.9 7.9 7.9 8.4 8.3 7.5 7.2 7.1 6.2 6.6 7.3 8.9
0.0 0.0 0.5 0.6 1.1 1.5 1.6 1.6 0.0 0.2 0.0 0.0 0.0 2.2 3.1 0.4 0.0 0.0 0.0 0.0 0.0 0.0 6.1 8.2 9.5 10.3 11.1 11.5 11.3 9.1 8.9 8.0 11.5 9.8 8.9 8.3 9.0 9.0 8.5 7.1 7.2 8.2 9.5
0.8 0.0 0.1 0.8 0.2 1.2 1.9 4.1 4.5 4.8 0.5 0.2 0.0 0.0 0.3 1.1 1.1 0.8 0.5 0.0 0.0 2.3 9.6 9.8 11.2 11.3 11.6 12.1 12.6 12.1 12.1 9.8 9.3 10.0 10.3 10.7 9.6 9.4 8.9 9.4 9.1 9.2 9.1
0.5 0.0 1.5 1.3 0.7 0.7 1.6 2.9 4.2 6.0 6.2 6.4 3.0 3.3 1.5 1.9 2.2 1.9 0.0 0.6 8.1 7.5 9.7 10.3 11.3 11.7 12.3 12.7 12.1 12.5 12.5 11.8 12.0 11.8 11.9 11.7 12.1 11.5 11.9 11.4 10.4 10.7 10.0
0.6 1.3 2.0 2.6 2.1 2.4 3.3 3.9 4.4 5.3 5.5 6.5 7.8 5.7 3.1 1.8 2.2 1.5 1.8 8.9 9.9 10.3 10.7 11.3 11.9 12.4 13.1 13.8 12.4 13.1 13.5 14.9 12.9 13.6 14.5 15.3 13.5 13.0 13.1 12.3 11.7 8.1 7.7
1.7 1.6 2.1 2.9 3.8 4.8 5.9 7.1 7.3 7.2 7.0 7.0 7.8 7.7 7.6 6.6 8.5 8.9 9.5 10.4 10.5 11.0 12.0 12.4 12.7 13.2 13.5 12.9 13.5 14.0 14.3 14.0 14.1 14.3 14.5 14.5 14.2 14.1 14.2 13.5 12.8 12.6 11.7
0.4 2.2 0.2 3.6 5.4 6.1 7.4 8.3 8.2 8.3 8.2 8.1 7.7 6.0 2.7 8.1 8.5 8.9 10.2 10.9 11.8 12.4 12.9 13.4 13.8 14.1 13.9 13.1 13.9 14.5 14.5 14.2 14.3 14.7 14.9 14.8 14.9 15.2 13.9 13.5 13.2 12.6 12.2
1.0 2.5 4.5 5.2 6.7 7.4 8.1 7.7 8.0 8.5 8.6 8.9 7.8 7.4 1.9 9.1 9.8 10.0 10.6 11.7 12.4 13.0 13.6 14.1 14.6 15.0 15.3 14.9 14.6 14.7 16.2 16.3 15.2 15.3 16.3 17.0 16.6 15.5 14.4 13.8 13.4 13.1 12.8
2.5 3.5 4.9 5.6 7.3 6.5 7.4 8.0 8.6 8.8 9.1 8.8 8.3 8.8 9.6 10.8 10.8 10.6 11.9 12.6 13.2 13.6 14.0 14.3 15.4 15.9 15.0 13.1 14.3 16.2 17.1 17.5 15.9 15.1 16.4 16.8 16.9 16.0 14.6 14.8 14.9 14.5 13.4
2.4 3.9 4.9 6.2 7.6 8.9 9.3 9.8 9.5 8.6 9.6 9.5 9.0 9.6 10.2 10.9 11.4 12.0 12.5 13.2 13.8 14.2 14.1 14.9 15.3 16.5 16.0 14.0 14.3 14.5 15.0 15.1 15.0 15.8 16.5 16.3 15.1 14.5 14.7 15.5 14.8 14.7 14.0
3.3 4.2 5.0 6.2 7.7 7.8 10.4 10.4 10.7 10.7 10.3 9.9 10.1 10.3 10.8 11.5 12.2 12.7 13.2 13.8 14.4 14.9 15.4 15.1 14.9 15.2 15.9 16.4 15.9 16.7 16.6 13.0 12.6 12.4 13.5 15.2 13.9 14.9 15.3 15.8 15.1 14.8 14.8
6.3 6.6 7.1 8.0 9.3 10.1 10.7 11.1 11.0 11.0 11.2 11.0 11.3 11.8 12.2 12.6 12.8 13.3 13.8 14.3 14.9 15.6 16.0 15.6 15.5 16.0 16.4 16.5 16.7 16.0 12.3 11.1 11.6 8.9 11.0 13.2 14.0 15.2 15.5 15.2 15.0 15.0 14.6